SCP
0 0 0 0 0 0 0 0 0 0 0 0 0 1 1 2 2 2 2 2 2 2 2 2 2 2 2 2 2 2 2 2 2 2 1 1 1 1 1 1 1 1 1 1
0 0 0 0 0 0 0 0 0 0 0 0 0 1 1 2 2 2 2 2 2 2 2 2 2 2 2 2 2 2 2 2 2 2 2 2 1 1 1 1 1 1 1 1
0 0 0 0 0 0 0 0 0 0 0 0 0 0 1 2 2 3 2 2 2 2 2 2 2 2 2 2 2 2 2 2 2 2 2 2 2 2 1 1 1 1 1 1
0 0 0 0 0 0 0 0 0 0 0 0 0 0 1 1 2 2 2 2 3 3 2 2 3 3 2 2 2 2 2 2 2 2 2 2 2 2 1 1 1 1 1 1
0 0 0 0 0 0 0 0 0 0 0 0 0 0 1 2 3 3 3 3 4 3 3 3 3 4 3 3 3 3 3 3 3 3 3 2 2 2 1 1 1 1 1 1
0 0 0 0 0 0 0 0 0 0 0 0 0 0 1 2 3 4 5 6 6 5 4 4 4 5 4 4 4 4 3 3 4 4 3 3 3 2 2 1 1 1 1 1
0 0 0 0 0 0 0 0 0 0 0 0 0 1 1 3 4 6 7 7 7 7 5 5 4 5 6 6 6 5 4 4 4 4 4 4 4 3 2 2 2 1 1 2
0 0 0 0 0 0 0 0 0 0 0 0 1 1 3 5 7 8 7 7 7 7 7 5 4 5 7 8 9 7 6 5 4 4 4 4 4 4 3 3 2 2 2 2
0 0 0 0 0 0 0 0 0 0 0 0 1 2 4 6 8 8 8 7 8 8 7 6 5 5 7 10 10 10 9 8 6 4 4 4 4 4 4 4 4 3 3 3
0 0 0 0 0 0 0 0 0 0 0 1 2 2 4 5 6 7 8 9 9 9 8 7 6 6 8 11 13 13 12 10 7 5 4 4 3 3 4 4 5 4 4 3
0 0 0 0 0 0 0 0 0 0 0 1 2 2 3 3 5 6 8 9 9 9 9 7 6 7 10 16 18 16 13 10 7 5 4 4 4 3 4 4 5 5 5 4
0 0 0 0 0 0 0 0 0 0 0 1 2 2 3 4 6 7 8 8 8 8 9 8 7 10 16 22 21 15 11 9 6 5 4 4 4 4 4 5 6 6 5 5
0 0 0 0 0 0 0 0 0 0 0 1 2 3 4 6 7 7 7 9 8 8 9 9 10 16 22 24 19 12 9 8 7 6 5 4 4 4 4 5 7 7 5 5
0 0 0 0 0 0 0 0 0 0 1 1 2 4 7 9 9 8 8 10 10 9 10 11 15 21 24 21 16 11 9 9 8 7 6 5 5 5 5 6 7 7 5 5
0 0 0 0 0 1 1 1 1 1 1 2 4 6 8 10 10 9 9 10 11 11 12 14 19 22 22 20 16 12 10 9 10 10 8 6 5 5 5 5 6 6 6 6
0 0 0 0 1 2 3 2 1 1 2 4 7 8 8 9 9 10 10 11 12 12 14 16 19 19 19 18 16 11 9 10 12 12 11 9 7 6 5 5 6 6 7 7
0 0 0 0 1 2 3 3 2 2 3 6 8 8 7 7 7 8 10 12 13 13 14 15 15 14 14 14 11 8 7 8 11 13 14 13 10 8 6 6 7 8 9 9
0 0 0 0 1 2 2 2 2 3 4 5 6 7 7 7 7 7 8 10 13 14 15 14 12 10 10 9 8 7 6 7 9 12 13 14 13 10 8 8 9 11 13 14
0 0 0 1 1 2 2 2 2 2 3 4 5 7 8 8 9 8 8 9 13 15 16 13 11 9 8 9 9 9 8 8 9 10 11 13 14 12 11 11 11 12 15 17
0 0 0 1 1 2 2 1 2 2 3 3 4 6 7 8 8 7 8 11 14 15 14 11 9 8 8 9 11 12 11 10 8 8 10 11 13 13 13 12 12 12 14 15
0 0 0 0 1 1 1 1 2 2 2 2 3 5 5 5 6 7 10 14 16 14 10 8 8 8 8 9 11 11 11 9 8 8 9 10 12 13 14 14 13 13 13 13
0 0 0 0 0 0 1 1 1 1 2 2 3 4 5 5 6 9 13 17 17 13 9 10 12 11 9 9 10 10 10 9 9 9 9 10 12 14 15 16 15 15 14 13
0 0 0 1 1 0 1 1 1 1 1 2 4 6 6 6 7 10 14 18 18 15 12 13 17 15 10 10 11 11 10 11 12 11 10 11 12 15 17 17 17 16 15 13
0 0 1 1 1 1 1 1 1 1 1 4 7 8 7 6 6 9 13 16 17 16 14 14 15 14 11 12 14 13 12 13 14 13 12 12 14 16 17 17 17 17 15 13
0 1 1 1 1 1 1 1 1 1 2 5 10 11 9 7 7 10 12 13 14 15 14 13 12 12 12 13 15 15 14 14 14 13 12 12 12 14 16 16 16 15 14 12
0 1 1 2 1 1 2 2 1 1 3 6 11 13 11 7 8 10 11 12 13 14 14 13 12 11 11 13 15 16 15 14 13 12 10 9 9 11 14 15 14 12 11 10
Wind_Speed
3 1 4 8 8 8 6 5 5 6 5 2 4 6 11 13 13 14 13 12 13 14 11 12 13 13 12 10 10 10 9 8 6 4 3 3 3 2 2 4 6 6 6 6
3 6 11 8 7 7 7 5 4 5 5 2 2 5 9 13 15 16 17 16 14 11 10 12 12 13 13 12 11 10 10 9 8 5 4 3 3 3 3 3 4 6 6 6
8 10 7 6 7 5 7 6 6 5 4 2 2 2 3 7 8 9 12 13 14 17 17 15 14 13 13 13 13 12 11 9 8 7 3 2 1 0 1 2 3 4 6 6
7 9 7 7 8 6 7 8 7 6 2 3 3 2 6 7 6 10 11 11 12 14 14 14 15 15 15 14 13 11 11 9 8 7 6 6 5 4 4 3 3 3 4 5
7 6 6 8 9 8 8 7 5 4 3 1 1 4 7 3 6 9 11 12 14 14 15 16 16 16 14 13 12 11 10 9 8 8 8 6 5 4 3 2 3 3 3 4
8 7 7 9 8 6 5 0 3 3 4 1 5 4 7 5 9 10 10 12 12 14 15 14 13 12 10 11 10 10 10 9 9 9 8 8 7 5 4 4 4 3 2 3
8 8 6 4 4 4 2 5 3 4 3 6 4 2 8 7 7 10 11 11 12 12 13 11 10 10 11 12 12 11 11 9 9 9 8 8 7 6 7 5 5 4 3 3
4 8 6 4 6 7 5 9 8 6 5 5 3 3 6 3 3 4 6 7 8 10 10 11 12 11 11 12 12 11 11 9 9 8 8 6 6 5 4 5 5 5 4 4
6 8 7 6 5 7 5 5 9 8 3 1 4 4 4 2 2 2 4 5 6 9 11 11 11 11 11 12 12 12 11 9 8 8 7 6 6 5 5 5 5 4 4 4
6 6 7 6 3 3 7 7 6 6 5 3 3 4 4 3 2 2 4 4 5 6 7 9 10 11 11 11 10 10 10 9 8 8 7 7 6 6 5 4 5 5 5 4
3 4 7 3 1 4 2 1 4 5 6 7 4 6 6 7 6 5 3 4 6 6 6 8 9 9 9 8 9 9 9 8 7 7 7 6 6 6 5 5 5 5 4 5
1 4 3 7 6 4 3 3 6 5 4 5 5 6 3 5 5 6 5 4 5 6 7 7 8 7 8 8 8 8 9 8 9 8 7 7 6 6 6 6 6 5 5 5
2 5 2 7 8 7 2 1 2 4 4 4 5 5 1 4 5 4 5 5 5 6 6 6 6 7 8 8 8 7 8 8 7 7 7 6 6 6 7 6 5 4 4 4
4 4 5 6 6 4 5 6 2 4 3 3 5 5 3 2 5 4 5 5 6 6 6 7 6 6 6 6 6 7 6 6 6 6 7 7 7 7 7 6 5 5 4 4
5 2 1 4 4 3 4 6 5 1 5 6 6 7 9 7 6 5 5 6 7 8 7 5 4 5 5 5 4 4 5 5 6 6 6 7 6 6 5 5 5 4 4 5
4 1 2 4 4 4 5 6 4 3 1 3 6 2 3 3 4 5 5 7 8 7 6 5 5 5 5 4 4 3 3 4 4 6 6 6 5 5 5 5 5 4 4 4
1 2 2 4 5 5 5 5 1 2 2 3 5 6 5 5 5 6 5 6 7 6 5 6 5 5 4 4 4 4 4 3 4 4 4 4 4 4 5 5 4 4 4 4
4 2 2 0 3 2 7 3 3 6 7 5 3 5 7 7 5 4 4 5 4 5 4 4 4 4 3 2 2 3 3 4 4 3 3 3 3 4 4 4 5 5 4 4
6 6 3 2 1 4 7 5 2 5 5 5 4 4 4 6 6 4 2 4 5 4 4 4 4 4 3 2 2 3 2 2 3 4 4 4 5 4 4 5 6 5 5 4
3 5 5 3 3 5 5 6 1 8 2 4 4 4 3 4 4 2 1 3 4 4 4 4 3 4 2 1 1 3 2 2 3 4 4 4 4 4 5 6 5 4 4 4
3 3 2 3 3 5 5 6 5 3 4 2 2 3 3 2 3 3 1 2 3 3 4 4 4 3 1 1 2 2 1 2 3 3 3 3 3 3 3 3 3 2 2 3
2 1 2 3 3 6 5 3 2 4 3 2 2 2 3 2 1 2 3 2 3 3 3 3 3 1 0 2 3 2 2 2 2 2 2 2 2 2 2 2 3 2 3 3
1 3 3 4 5 4 2 2 3 3 2 1 1 1 2 2 2 2 2 1 2 2 1 2 3 1 0 1 2 2 2 2 1 1 2 2 2 2 2 3 4 3 3 4
3 1 2 1 2 2 2 2 2 2 1 0 1 2 2 2 1 2 2 1 1 2 1 1 2 1 1 1 1 2 2 2 1 1 2 2 2 2 2 2 3 3 3 4
4 2 2 0 3 3 3 2 2 3 3 2 1 1 2 1 0 1 1 1 1 1 1 2 2 1 2 2 2 2 1 1 1 1 2 2 2 2 2 2 3 3 4 5
3 3 3 5 5 3 5 4 1 2 2 1 1 1 1 1 1 1 1 1 1 1 1 1 1 1 2 2 2 2 2 2 2 2 2 2 2 2 2 2 2 2 3 4
Wind_Direction
300 87 234 229 210 203 218 243 261 264 253 203 191 181 179 181 181 179 181 182 182 184 181 175 173 171 168 169 170 171 171 178 171 168 169 176 200 206 201 205 203 198 197 195
340 261 239 226 230 225 230 245 253 274 276 237 190 199 189 184 190 187 184 185 185 180 176 178 176 173 174 175 176 175 176 178 180 181 177 179 184 202 205 208 204 199 194 193
220 243 246 239 244 240 251 219 211 225 284 335 110 322 223 213 202 195 191 189 185 184 181 181 181 181 178 180 181 182 183 182 184 179 162 160 140 175 197 215 212 211 199 196
242 247 252 251 247 220 247 230 207 215 168 267 156 214 262 216 204 199 195 191 191 192 186 183 183 184 185 187 184 181 181 182 182 175 170 172 181 195 207 202 206 211 202 198
252 248 250 252 246 224 226 230 215 219 177 292 310 149 265 202 205 209 202 196 196 192 187 188 187 186 187 185 182 181 179 183 182 180 181 183 193 201 201 193 200 207 207 204
250 253 228 234 250 223 208 84 2 37 75 268 244 174 251 212 204 205 205 199 196 191 188 189 186 178 179 178 177 177 180 186 184 183 185 188 193 193 188 199 199 201 205 216
289 285 267 243 268 283 112 98 27 343 359 250 255 178 245 238 200 192 195 197 194 191 187 182 177 175 178 180 178 176 179 186 187 187 190 192 193 189 192 197 198 192 199 212
235 276 266 249 208 220 208 147 165 200 217 263 304 214 248 239 186 164 168 180 179 180 183 182 182 180 179 181 180 177 179 181 181 186 191 189 187 189 195 195 192 197 206 213
198 251 271 265 235 182 204 192 178 155 179 196 267 270 298 344 64 90 116 130 153 173 180 181 176 175 177 182 182 178 176 177 181 185 183 184 188 190 195 196 195 202 211 214
179 246 277 283 314 283 187 172 108 124 157 214 258 244 228 222 189 130 122 133 152 161 173 175 172 174 176 180 177 168 169 176 178 180 183 188 191 193 192 192 204 211 216 219
156 193 285 322 213 252 306 120 128 137 159 161 205 257 218 188 177 148 138 140 152 154 158 172 175 177 170 163 164 165 171 173 177 185 186 189 190 191 192 199 210 216 220 215
165 138 251 264 258 223 192 197 152 157 216 168 166 251 257 165 146 135 130 123 142 151 148 152 157 150 150 156 164 172 175 174 184 186 187 193 194 189 196 205 211 211 218 216
58 98 21 331 337 357 15 307 158 150 139 157 165 240 280 114 103 109 120 120 125 129 132 134 139 147 155 161 164 173 176 181 182 180 184 194 197 199 205 209 207 204 209 212
79 104 161 201 236 276 302 308 319 121 148 190 196 199 243 176 138 137 116 114 109 111 122 132 146 154 158 159 159 169 172 174 174 173 184 195 203 208 209 206 201 204 202 199
75 104 216 230 254 276 295 310 323 279 196 184 200 192 209 198 167 153 126 110 98 95 99 119 140 143 143 140 144 158 167 172 174 177 188 201 206 207 203 200 202 201 201 205
54 87 14 334 343 352 328 316 321 327 305 151 134 201 225 167 127 119 120 117 112 109 110 110 117 125 131 144 153 164 169 174 176 186 198 200 197 198 199 202 200 199 206 208
359 89 56 299 319 5 318 300 319 18 0 164 184 196 155 129 136 143 133 117 116 116 121 127 128 141 149 161 166 176 182 180 176 187 197 198 195 200 208 206 201 207 212 207
168 126 132 261 26 259 251 283 80 75 22 22 99 142 147 145 146 131 130 128 126 127 127 127 133 140 147 152 160 175 167 173 173 174 194 201 196 203 208 204 206 211 211 212
161 148 131 125 187 268 296 323 6 87 9 3 85 97 122 129 83 49 67 121 134 131 135 136 136 136 133 132 150 139 142 162 169 186 201 210 204 204 206 208 211 208 205 213
70 113 128 145 174 228 263 315 18 91 359 334 74 90 102 109 110 228 222 115 106 114 118 112 105 94 91 83 111 111 136 172 203 215 218 219 212 211 216 219 219 212 201 204
19 39 134 175 206 251 281 316 33 110 213 296 59 78 67 95 176 205 128 100 114 115 121 114 105 105 135 136 111 114 152 219 232 226 225 221 220 221 215 219 219 207 206 197
168 142 209 156 189 250 301 19 108 193 206 135 87 80 80 75 79 80 92 110 113 108 112 115 111 105 132 128 128 147 221 241 245 233 229 233 228 232 227 209 220 199 187 201
144 183 190 186 211 252 305 124 166 153 123 140 117 65 88 75 74 103 91 109 120 113 109 114 118 110 38 149 142 181 240 241 229 240 246 249 248 238 220 205 211 209 201 207
317 38 90 42 293 310 16 55 41 60 77 278 111 99 86 88 78 107 111 123 124 115 131 121 111 118 261 256 222 219 239 235 211 245 265 258 240 241 236 224 217 211 211 216
275 349 48 309 283 355 2 21 17 9 3 16 24 55 102 95 30 129 124 150 151 162 163 142 148 193 256 248 248 257 241 208 249 258 257 259 252 238 238 243 238 228 228 217
255 187 178 229 239 227 259 270 306 351 317 315 38 20 52 122 188 124 147 178 175 192 183 150 166 219 260 268 265 253 233 202 212 250 259 255 257 256 238 239 274 292 248 232